• en Belgique
  • Liste des pays
  • À 7 jours
  • Température de l'eau
  • Carte satellitaire
  • Carte météo
  • Widgets météo
  • user-avatar
    Se connecter

    Météo par heure à Ans

    Ce jour, 24 Février, Samedi

    Heure Température Précipitation Vent Pression Humidité
    00:00 -5°C° 0 mm 3 m/s 750 mmHg 49%
    01:00 -5°C° 0 mm 4 m/s 750 mmHg 48%
    02:00 -5°C° 0 mm 4 m/s 750 mmHg 46%
    03:00 -7°C° 0 mm 4 m/s 750 mmHg 44%
    04:00 -6°C° 0 mm 5 m/s 750 mmHg 42%
    05:00 -6°C° 0 mm 5 m/s 750 mmHg 41%
    06:00 -6°C° 0 mm 5 m/s 750 mmHg 39%
    07:00 -5°C° 0 mm 6 m/s 751 mmHg 36%
    08:00 -4°C° 0 mm 6 m/s 751 mmHg 34%
    09:00 -3°C° 0 mm 7 m/s 751 mmHg 31%
    10:00 -1°C° 0 mm 7 m/s 751 mmHg 32%
    11:00 0°C° 0 mm 7 m/s 751 mmHg 33%
    12:00 +2°C° 0 mm 7 m/s 751 mmHg 34%
    13:00 +2°C° 0 mm 7 m/s 751 mmHg 37%
    14:00 +2°C° 0 mm 7 m/s 751 mmHg 40%
    15:00 +2°C° 0 mm 7 m/s 751 mmHg 43%
    16:00 -1°C° 0 mm 7 m/s 752 mmHg 47%
    17:00 -2°C° 0 mm 6 m/s 752 mmHg 51%
    18:00 -3°C° 0 mm 6 m/s 752 mmHg 55%
    19:00 -4°C° 0 mm 6 m/s 753 mmHg 53%
    20:00 -5°C° 0 mm 6 m/s 753 mmHg 51%
    21:00 -5°C° 0 mm 6 m/s 753 mmHg 50%
    22:00 -6°C° 0 mm 6 m/s 754 mmHg 49%
    23:00 -6°C° 0 mm 5 m/s 754 mmHg 49%

    Demain, 25 Février, Dimanche

    Heure Température Précipitation Vent Pression Humidité
    00:00 -6°C° 0 mm 5 m/s 754 mmHg 48%
    01:00 -7°C° 0 mm 5 m/s 754 mmHg 49%
    02:00 -7°C° 0 mm 5 m/s 754 mmHg 49%
    03:00 -7°C° 0 mm 5 m/s 754 mmHg 49%
    04:00 -7°C° 0 mm 5 m/s 754 mmHg 48%
    05:00 -8°C° 0 mm 5 m/s 755 mmHg 47%
    06:00 -8°C° 0 mm 5 m/s 755 mmHg 47%
    07:00 -8°C° 0 mm 6 m/s 755 mmHg 43%
    08:00 -6°C° 0 mm 6 m/s 755 mmHg 39%
    09:00 -6°C° 0 mm 6 m/s 756 mmHg 35%
    10:00 -5°C° 0 mm 6 m/s 755 mmHg 31%
    11:00 -4°C° 0 mm 6 m/s 755 mmHg 28%
    12:00 -3°C° 0 mm 6 m/s 755 mmHg 24%
    13:00 -3°C° 0 mm 6 m/s 755 mmHg 25%
    14:00 -3°C° 0 mm 6 m/s 755 mmHg 26%
    15:00 -3°C° 0 mm 6 m/s 755 mmHg 27%
    16:00 -4°C° 0 mm 6 m/s 755 mmHg 32%
    17:00 -5°C° 0 mm 5 m/s 755 mmHg 37%
    18:00 -6°C° 0 mm 5 m/s 755 mmHg 42%
    19:00 -7°C° 0 mm 5 m/s 756 mmHg 44%
    20:00 -7°C° 0 mm 5 m/s 756 mmHg 47%
    21:00 -7°C° 0 mm 5 m/s 756 mmHg 49%
    22:00 -7°C° 0 mm 4 m/s 756 mmHg 52%
    23:00 -7°C° 0 mm 4 m/s 756 mmHg 55%

    Après-demain, 26 Février, Lundi

    Heure Température Précipitation Vent Pression Humidité
    00:00 -8°C° 0 mm 4 m/s 756 mmHg 58%
    01:00 -8°C° 0 mm 4 m/s 756 mmHg 60%
    02:00 -8°C° 0 mm 4 m/s 756 mmHg 61%
    03:00 -8°C° 0 mm 4 m/s 756 mmHg 63%
    04:00 -8°C° 0 mm 4 m/s 756 mmHg 63%
    05:00 -8°C° 0 mm 4 m/s 756 mmHg 63%
    06:00 -8°C° 0 mm 4 m/s 757 mmHg 63%
    07:00 -8°C° 0 mm 5 m/s 757 mmHg 59%
    08:00 -8°C° 0 mm 6 m/s 757 mmHg 54%
    09:00 -8°C° 0 mm 7 m/s 757 mmHg 50%
    10:00 -7°C° 0 mm 7 m/s 756 mmHg 46%
    11:00 -6°C° 0 mm 7 m/s 756 mmHg 43%
    12:00 -6°C° 0 mm 7 m/s 756 mmHg 39%
    13:00 -6°C° 0 mm 7 m/s 756 mmHg 39%
    14:00 -6°C° 0 mm 7 m/s 755 mmHg 39%
    15:00 -6°C° 0 mm 7 m/s 755 mmHg 39%
    16:00 -5°C° 0 mm 6 m/s 755 mmHg 43%
    17:00 -6°C° 0 mm 5 m/s 755 mmHg 47%
    18:00 -7°C° 0 mm 4 m/s 754 mmHg 50%
    19:00 -7°C° 0 mm 4 m/s 754 mmHg 53%
    20:00 -7°C° 0 mm 4 m/s 754 mmHg 55%
    21:00 -8°C° 0 mm 4 m/s 754 mmHg 58%
    22:00 -8°C° 0 mm 4 m/s 754 mmHg 62%
    23:00 -8°C° 0 mm 4 m/s 754 mmHg 67%

    27 Février, Mardi

    Heure Température Précipitation Vent Pression Humidité
    00:00 -7°C° 0 mm 3 m/s 754 mmHg 71%
    01:00 -7°C° 0 mm 3 m/s 753 mmHg 72%
    02:00 -7°C° 0 mm 3 m/s 753 mmHg 73%
    03:00 -8°C° 0 mm 3 m/s 753 mmHg 75%
    04:00 -8°C° 0 mm 3 m/s 752 mmHg 74%
    05:00 -8°C° 0 mm 3 m/s 752 mmHg 74%
    06:00 -8°C° 0 mm 3 m/s 752 mmHg 74%
    07:00 -8°C° 0 mm 4 m/s 752 mmHg 69%
    08:00 -8°C° 0 mm 4 m/s 752 mmHg 65%
    09:00 -7°C° 0 mm 4 m/s 752 mmHg 60%
    10:00 -5°C° 0 mm 4 m/s 751 mmHg 55%
    11:00 -4°C° 0 mm 4 m/s 751 mmHg 50%
    12:00 -4°C° 0 mm 4 m/s 751 mmHg 45%
    13:00 -4°C° 0,1 mm 4 m/s 750 mmHg 45%
    14:00 -4°C° 0,1 mm 4 m/s 750 mmHg 45%
    15:00 -4°C° 0,1 mm 4 m/s 749 mmHg 44%
    16:00 -5°C° 0 mm 3 m/s 749 mmHg 49%
    17:00 -5°C° 0 mm 3 m/s 749 mmHg 53%
    18:00 -5°C° 0 mm 2 m/s 749 mmHg 58%
    19:00 -6°C° 0 mm 2 m/s 749 mmHg 59%
    20:00 -6°C° 0 mm 2 m/s 749 mmHg 61%
    21:00 -6°C° 0 mm 2 m/s 749 mmHg 63%
    22:00 -6°C° 0 mm 2 m/s 749 mmHg 63%
    23:00 -7°C° 0 mm 2 m/s 749 mmHg 63%

    28 Février, Mercredi

    Heure Température Précipitation Vent Pression Humidité
    00:00 -6°C° 0 mm 1 m/s 749 mmHg 63%
    01:00 -7°C° 0 mm 2 m/s 749 mmHg 62%
    02:00 -7°C° 0 mm 2 m/s 749 mmHg 60%
    03:00 -8°C° 0 mm 2 m/s 749 mmHg 58%
    04:00 -8°C° 0 mm 2 m/s 749 mmHg 55%
    05:00 -9°C° 0 mm 3 m/s 749 mmHg 52%
    06:00 -10°C° 0 mm 3 m/s 749 mmHg 50%
    07:00 -10°C° 0 mm 4 m/s 749 mmHg 45%
    08:00 -9°C° 0 mm 4 m/s 750 mmHg 41%
    09:00 -10°C° 0 mm 5 m/s 750 mmHg 37%
    10:00 -8°C° 0 mm 5 m/s 750 mmHg 35%
    11:00 -7°C° 0 mm 5 m/s 749 mmHg 33%
    12:00 -7°C° 0 mm 5 m/s 749 mmHg 31%
    13:00 -6°C° 0 mm 5 m/s 748 mmHg 32%
    14:00 -6°C° 0 mm 5 m/s 748 mmHg 32%
    15:00 -6°C° 0 mm 6 m/s 747 mmHg 32%
    16:00 -7°C° 0 mm 5 m/s 747 mmHg 35%
    17:00 -8°C° 0 mm 5 m/s 747 mmHg 38%
    18:00 -9°C° 0 mm 4 m/s 747 mmHg 41%
    19:00 -10°C° 0 mm 5 m/s 747 mmHg 42%
    20:00 -10°C° 0 mm 5 m/s 747 mmHg 42%
    21:00 -10°C° 0 mm 6 m/s 746 mmHg 43%
    22:00 -10°C° 0 mm 6 m/s 746 mmHg 44%
    23:00 -10°C° 0 mm 6 m/s 745 mmHg 44%

    1 Mars, Jeudi

    Heure Température Précipitation Vent Pression Humidité
    00:00 -10°C° 0 mm 6 m/s 745 mmHg 45%
    01:00 -11°C° 0 mm 7 m/s 744 mmHg 45%
    02:00 -11°C° 0 mm 7 m/s 743 mmHg 45%
    03:00 -11°C° 0 mm 7 m/s 742 mmHg 45%
    04:00 -11°C° 0 mm 7 m/s 742 mmHg 45%
    05:00 -11°C° 0 mm 7 m/s 741 mmHg 45%
    06:00 -11°C° 0 mm 7 m/s 741 mmHg 46%
    07:00 -9°C° 0 mm 7 m/s 740 mmHg 44%
    08:00 -8°C° 0 mm 8 m/s 740 mmHg 43%
    09:00 -7°C° 0 mm 8 m/s 739 mmHg 41%
    10:00 -6°C° 0 mm 8 m/s 739 mmHg 40%
    11:00 -5°C° 0 mm 8 m/s 738 mmHg 38%
    12:00 -4°C° 0 mm 8 m/s 738 mmHg 37%
    13:00 -4°C° 0 mm 8 m/s 737 mmHg 39%
    14:00 -4°C° 0 mm 8 m/s 737 mmHg 41%
    15:00 -4°C° 0 mm 8 m/s 736 mmHg 44%
    16:00 -3°C° 0 mm 7 m/s 736 mmHg 44%
    17:00 -4°C° 0 mm 7 m/s 735 mmHg 45%
    18:00 -4°C° 0 mm 7 m/s 735 mmHg 46%
    19:00 -4°C° 0 mm 7 m/s 734 mmHg 46%
    20:00 -4°C° 0 mm 7 m/s 734 mmHg 45%
    21:00 -4°C° 0 mm 7 m/s 734 mmHg 45%
    22:00 -4°C° 0 mm 7 m/s 733 mmHg 46%
    23:00 -4°C° 0 mm 7 m/s 732 mmHg 47%
    Voir plus